Theta_e
332 331 331 329 328 326 326 325 322 324 328 327 329 330 332 338 330 326 347 354 340 340 352 357 360 353 348 347 344 345 347 348 348 349 349 351 350 350 350 350 349 349 347 346 346 347 349 350 350 351 352 353 353 354 354 353 352 352 351 349 348 348 348 348 347 347 348 347 347 347 347 347 347 348 348 348 349 348 349 349 348 348 348 348 349 349 348
331 331 332 330 329 329 329 329 325 323 326 330 333 338 337 335 335 337 345 351 347 340 341 347 347 340 339 342 342 345 347 347 348 348 348 349 348 348 348 348 349 349 348 346 346 348 349 348 349 351 351 352 353 352 352 352 352 351 350 348 348 348 348 348 347 348 347 347 347 347 348 348 348 348 348 348 349 349 349 349 349 349 349 349 349 349 349
328 331 334 332 330 331 329 327 328 327 330 338 344 350 346 336 337 345 342 343 353 344 334 338 340 338 341 343 343 345 347 347 348 347 347 347 346 347 348 349 349 349 348 348 347 348 346 344 344 347 349 351 351 350 351 351 351 350 348 347 346 347 348 348 347 347 347 347 348 348 347 347 347 347 347 347 347 347 348 348 348 348 349 349 349 349 349
326 329 332 332 330 331 327 329 337 337 337 343 348 351 348 340 340 344 336 337 353 349 336 336 339 340 342 342 343 345 345 347 348 347 346 347 346 348 348 349 349 348 347 349 348 347 347 342 339 342 346 347 346 346 348 348 347 347 345 344 343 344 346 346 347 347 346 347 346 345 344 344 344 345 344 343 343 343 343 343 343 344 345 346 347 347 347
327 327 330 332 330 328 329 332 336 335 338 345 347 345 343 340 338 337 333 336 346 343 337 341 346 346 345 342 342 345 345 346 347 346 346 346 346 348 349 348 348 347 347 348 347 346 346 344 338 337 338 338 338 339 342 344 345 344 343 341 340 341 342 344 345 345 344 344 343 342 342 342 342 343 342 342 342 341 341 341 341 340 341 343 345 345 346
329 332 333 330 327 329 333 333 333 335 339 344 345 341 339 340 338 336 336 338 338 337 338 341 344 346 346 341 341 343 344 345 347 346 345 346 347 348 349 348 347 347 346 347 346 346 346 344 342 339 338 338 337 338 341 343 344 343 342 341 340 341 341 342 343 343 343 343 343 343 343 342 343 343 342 342 342 341 340 339 339 339 339 341 342 344 345
332 339 337 329 329 335 338 334 334 338 339 337 340 340 338 338 338 337 337 337 336 335 336 335 336 338 339 340 342 343 343 343 344 345 345 345 347 349 349 348 347 347 347 347 346 347 347 346 345 344 344 343 340 340 342 342 342 342 343 342 342 342 342 343 343 343 343 343 344 344 344 343 343 342 342 340 339 337 335 334 334 334 335 337 339 341 343
329 334 333 329 332 338 340 337 336 338 338 338 341 342 340 338 337 337 337 337 335 333 333 334 334 334 336 341 343 343 343 344 343 344 344 344 346 348 348 348 347 348 347 347 346 347 347 347 347 348 345 342 339 340 342 343 343 343 342 341 341 341 341 342 343 343 343 343 344 343 343 342 341 341 340 338 336 334 332 331 331 331 332 334 336 338 340
331 333 333 334 335 336 339 340 336 335 336 337 339 341 341 338 336 337 336 336 336 334 334 336 335 335 339 343 343 342 344 345 344 344 343 343 344 346 347 347 347 347 347 347 346 347 347 347 347 348 345 339 338 340 342 342 343 341 340 340 338 337 338 339 341 342 343 343 343 342 341 340 339 338 337 335 334 333 332 331 331 331 333 334 334 335 336
338 337 335 336 333 330 334 336 331 331 334 333 333 339 343 339 335 336 336 335 336 335 335 336 337 338 342 345 344 342 342 344 344 345 345 344 344 345 346 346 346 347 347 346 346 346 347 347 347 346 342 337 336 338 338 337 337 336 337 338 335 333 334 336 338 341 342 342 342 341 339 338 336 335 334 333 332 332 332 331 331 331 332 332 333 333 333
335 333 333 336 332 330 334 334 331 331 333 332 332 339 344 339 333 335 336 334 334 335 335 337 341 347 351 348 343 342 343 344 344 344 345 345 345 345 345 346 345 345 345 345 345 346 348 347 348 346 340 336 336 334 332 331 331 331 333 333 332 332 332 335 338 339 340 340 340 339 338 337 335 334 333 331 330 330 331 331 331 330 330 331 331 331 330
335 333 333 334 333 333 335 333 332 332 331 332 335 338 341 337 333 334 335 333 333 334 336 337 341 349 353 347 342 343 346 345 343 344 345 344 344 345 344 344 346 345 344 344 344 346 347 348 349 345 340 338 338 335 332 330 328 328 331 332 332 333 333 335 338 339 340 340 339 338 337 336 335 334 332 330 330 330 330 330 330 331 331 331 331 331 330
339 336 333 331 331 334 334 332 331 331 332 337 340 339 337 335 332 333 334 334 334 333 335 337 339 341 343 342 343 345 347 346 343 343 344 344 344 344 344 344 345 345 345 343 343 344 346 348 349 346 341 340 339 337 334 332 330 331 334 335 334 333 334 336 337 338 338 338 336 335 334 334 333 332 331 329 329 329 330 331 331 331 331 331 331 331 330
337 334 334 333 331 331 331 331 331 331 335 342 341 336 335 333 332 331 332 334 335 334 334 336 337 338 338 339 342 345 346 347 347 343 343 344 344 344 344 344 344 344 343 342 342 344 345 348 348 346 342 341 339 337 335 334 335 337 339 339 337 335 335 336 336 337 336 335 334 333 332 332 331 330 329 329 328 329 330 330 331 331 331 331 330 330 330
335 335 335 335 332 329 329 332 334 335 339 340 335 333 334 331 330 330 330 332 335 336 336 336 336 336 335 335 338 342 345 347 347 346 345 344 344 344 344 343 343 343 343 343 343 344 346 348 348 346 344 341 339 336 336 336 338 341 342 341 338 335 335 336 336 335 335 334 333 332 330 329 328 328 329 329 329 329 329 330 330 331 330 330 330 329 329
335 336 336 333 330 328 329 332 334 335 335 334 332 332 332 330 329 330 330 331 333 335 336 335 334 334 334 333 335 337 342 345 346 346 347 346 346 346 345 344 344 342 342 343 343 345 347 349 349 347 345 342 338 335 335 337 339 341 342 340 336 333 332 333 334 334 334 333 332 330 328 327 328 328 328 328 329 329 329 330 330 330 330 329 328 328 328
334 333 334 332 329 328 328 330 331 331 331 331 331 331 331 330 330 330 331 332 332 332 334 334 333 331 331 332 332 333 338 342 343 344 346 346 347 348 346 346 345 343 343 344 344 345 348 349 350 349 347 345 341 336 335 337 339 341 341 339 334 331 330 331 332 334 334 332 330 328 326 327 328 328 328 329 330 330 330 330 330 329 329 329 328 328 329
332 329 329 330 328 327 328 328 330 331 331 331 331 331 331 331 330 330 330 331 331 331 331 332 333 331 329 330 330 329 332 335 338 341 344 345 345 347 348 348 348 346 345 345 345 346 347 349 351 351 349 348 344 339 337 337 338 340 341 339 335 332 331 331 332 333 333 331 329 327 326 327 328 329 330 331 330 331 331 331 331 330 329 328 328 329 330
332 331 331 330 327 327 327 328 329 330 330 331 331 331 331 330 330 331 330 329 329 329 329 330 331 331 330 330 329 328 328 330 333 336 340 343 344 345 346 347 349 349 348 347 346 347 348 350 351 351 351 350 347 343 340 340 341 342 343 339 335 331 330 330 330 331 331 329 327 326 327 328 329 330 330 331 331 331 331 331 331 330 329 328 328 329 329
332 333 332 327 325 326 327 326 327 327 328 329 329 330 330 330 330 330 330 329 329 328 328 328 328 329 329 330 330 329 328 328 329 331 334 338 341 344 345 345 346 348 349 349 349 348 349 350 351 351 351 350 347 344 343 342 343 344 344 341 335 330 328 327 328 329 330 327 326 326 328 329 330 330 330 330 330 330 330 330 329 330 329 329 328 328 329
331 331 329 325 326 328 326 324 324 325 326 327 328 328 329 329 329 329 329 329 330 328 328 328 328 327 328 328 329 330 328 327 328 329 331 333 335 339 343 344 345 346 347 349 349 349 350 351 351 351 351 350 348 347 345 345 345 344 345 342 335 330 327 325 326 329 329 327 326 327 328 329 330 329 329 329 329 328 328 328 328 329 329 329 329 329 328
331 332 328 325 327 329 326 323 324 324 325 326 327 327 327 327 328 329 328 328 329 330 329 329 328 328 327 327 328 329 328 328 327 328 330 332 332 333 338 343 344 345 345 347 349 350 350 351 351 351 351 350 350 349 348 348 347 346 346 342 336 331 328 325 326 329 328 326 326 328 329 329 329 328 329 329 329 328 328 328 328 328 328 329 329 328 328
329 327 325 324 325 326 325 323 323 324 325 326 326 326 326 326 326 327 328 328 329 329 329 329 328 327 327 326 326 327 327 328 328 327 329 332 332 330 332 338 344 345 345 347 349 350 351 351 351 352 351 350 350 350 350 349 349 348 348 343 336 332 328 325 327 329 327 326 327 328 328 328 328 327 327 328 327 327 327 327 327 327 328 328 328 328 328
325 323 322 323 323 323 323 323 324 324 325 325 325 325 326 325 325 326 327 328 328 329 330 329 328 328 327 325 325 327 327 328 328 328 329 331 333 332 332 334 338 341 344 347 348 349 350 350 350 351 351 350 350 350 350 351 349 349 349 344 337 333 330 326 328 329 327 326 326 327 327 327 326 326 327 327 326 326 327 327 327 327 327 328 328 328 329
322 322 322 322 323 323 324 324 324 325 326 324 324 324 324 324 324 324 326 328 328 330 330 329 329 330 329 327 327 329 329 327 328 330 331 331 332 334 334 333 333 335 338 342 345 347 348 349 350 351 351 350 350 350 351 351 350 350 349 345 338 335 332 329 328 328 327 326 326 326 324 324 324 325 326 326 325 326 327 327 326 326 327 328 329 329 330
323 324 324 324 325 324 325 324 324 324 324 322 322 321 322 322 322 323 325 327 328 329 329 328 328 330 332 332 333 333 331 328 327 331 333 332 331 333 334 334 333 333 333 336 340 344 346 348 349 350 350 350 350 350 351 351 350 349 349 345 339 336 335 332 328 327 327 327 326 324 323 323 323 324 324 324 324 324 325 325 325 326 327 327 328 328 329
325 325 325 325 325 324 324 324 324 323 322 322 321 321 321 320 321 321 323 325 327 327 327 326 326 329 333 334 335 335 335 332 330 330 333 334 334 333 335 334 334 333 332 332 335 339 342 345 346 347 348 349 349 347 346 347 348 348 348 345 340 338 337 335 330 326 327 327 325 322 321 321 321 321 320 321 321 322 323 324 324 326 327 326 327 327 327
325 325 325 326 326 325 324 324 323 323 322 322 322 322 321 321 321 320 321 324 327 328 328 328 329 331 333 334 332 332 333 333 332 332 334 335 334 334 334 334 334 333 333 332 332 334 338 342 345 345 346 348 346 343 341 342 344 345 346 344 342 339 336 334 329 326 327 327 325 321 320 320 320 320 319 319 319 320 321 322 323 325 326 326 326 326 326
324 325 325 325 325 325 324 324 323 323 323 322 322 322 322 322 322 321 320 321 324 327 329 331 332 333 333 333 331 330 330 331 332 331 332 332 332 332 333 333 334 333 332 332 332 334 337 340 343 345 345 345 345 345 344 343 343 343 343 344 343 339 335 331 327 326 327 327 325 322 320 320 320 319 319 320 320 319 319 320 322 324 325 325 325 326 326
324 324 324 324 324 325 325 324 324 323 323 323 323 323 323 323 323 322 322 322 324 326 327 328 330 331 331 330 329 329 330 331 330 330 330 330 330 331 332 333 334 333 333 333 334 336 337 340 343 345 345 344 344 345 345 343 341 341 342 343 343 340 334 330 327 326 326 326 326 324 322 321 321 321 320 321 320 319 319 319 320 322 324 324 325 325 325
325 324 324 324 325 325 325 325 325 325 324 324 324 324 324 324 324 324 323 324 326 326 326 327 328 328 326 327 328 330 330 330 329 329 329 329 329 330 332 333 333 333 333 332 332 334 337 341 343 343 344 343 342 343 344 343 338 337 341 343 343 340 334 330 328 327 326 325 324 324 323 322 322 321 321 321 321 320 320 319 320 322 324 324 323 324 324
326 325 325 325 324 325 325 325 325 324 324 324 324 324 324 324 324 324 324 324 325 327 327 328 327 326 325 328 330 330 329 328 328 327 328 328 328 329 331 333 333 333 333 332 331 332 335 339 342 343 343 344 344 343 344 344 341 339 341 343 343 340 334 330 329 328 327 326 325 325 325 325 325 325 324 323 322 321 320 320 320 321 322 323 323 323 324
325 325 325 325 325 325 325 325 325 325 325 324 324 324 324 324 324 324 323 322 323 325 326 327 327 327 328 331 331 330 329 328 327 327 327 328 329 330 332 333 333 332 332 332 332 332 332 334 338 341 343 343 344 344 344 344 342 340 341 343 343 340 334 330 329 329 329 327 327 328 329 330 330 330 329 327 325 323 321 320 320 321 322 323 323 323 323
325 325 325 325 325 326 325 325 325 325 325 325 325 325 324 323 323 323 323 322 322 323 326 328 329 330 331 331 331 329 328 327 326 327 329 330 331 333 334 334 333 332 332 332 332 332 332 332 336 340 342 342 342 343 344 343 342 341 341 342 343 340 334 331 330 331 330 330 330 331 331 332 331 331 331 330 327 325 322 321 319 320 322 323 323 323 323
326 326 326 326 326 326 326 325 325 325 325 325 325 325 325 324 323 323 324 323 323 324 327 330 332 332 331 330 329 327 327 326 326 327 329 331 333 333 333 332 332 331 332 332 331 331 332 333 334 338 340 341 341 341 342 342 341 341 341 342 342 340 335 331 330 330 331 331 331 332 332 332 332 332 332 330 328 326 324 321 319 320 321 322 323 323 323
325 326 326 326 326 326 326 326 325 325 326 326 326 325 324 324 324 325 326 325 325 326 329 331 331 331 329 329 328 327 327 326 326 327 329 331 333 333 332 331 331 331 331 330 329 330 332 333 335 337 339 340 340 340 341 341 340 340 341 343 342 339 335 332 330 331 331 332 332 332 332 332 332 332 332 330 327 326 325 322 319 318 320 322 323 323 324
325 326 326 326 326 326 326 326 326 326 327 327 327 326 325 325 326 328 329 328 328 328 329 329 329 328 328 327 327 326 326 326 326 327 329 332 333 332 331 331 331 331 330 329 329 330 332 334 335 336 338 338 339 340 340 339 340 341 343 342 341 339 337 334 332 332 332 332 333 332 332 332 332 332 331 329 327 327 326 323 319 316 317 320 322 323 324
324 325 326 327 326 326 326 326 327 327 327 328 328 328 328 328 329 330 330 330 329 329 330 330 330 329 328 327 327 327 326 327 329 331 332 333 332 332 331 331 331 331 331 331 331 331 332 333 335 337 338 338 339 339 339 339 340 341 342 342 341 339 337 335 334 333 332 333 333 332 332 332 333 331 330 329 328 328 327 326 321 316 315 317 320 322 322
324 325 326 327 326 325 326 327 328 328 328 328 329 329 330 330 331 331 331 331 330 331 331 331 330 329 328 329 329 330 330 330 331 333 333 333 331 331 330 329 330 331 331 331 332 332 332 334 336 338 338 338 339 339 338 339 339 340 341 341 340 339 337 336 335 334 333 333 334 333 332 332 332 331 330 330 330 328 328 328 326 321 317 315 317 319 320
325 325 326 327 326 325 326 327 328 328 328 328 329 330 330 330 330 331 330 330 330 330 330 330 329 329 330 331 331 331 331 332 332 333 332 331 330 329 329 328 330 331 332 332 333 333 332 334 336 338 338 339 339 339 338 338 339 339 339 340 338 337 335 334 334 335 334 334 335 334 333 332 332 331 330 331 331 329 328 328 328 326 322 318 319 320 321
325 325 326 327 326 326 326 326 327 328 328 328 329 329 329 329 331 331 330 330 330 330 330 331 332 332 332 332 332 332 331 332 332 331 330 329 329 330 330 330 331 333 333 334 334 334 334 335 337 338 338 338 338 338 338 338 338 338 339 338 336 333 331 332 334 335 335 334 334 333 333 332 331 331 331 331 331 330 329 328 328 327 326 324 324 324 324
325 326 327 327 327 328 328 327 327 328 328 328 328 328 329 329 330 330 329 328 328 328 329 331 332 333 332 332 331 331 330 329 329 328 328 329 330 331 331 330 332 333 334 335 336 336 336 336 337 338 338 338 338 338 338 337 338 338 337 336 334 331 329 331 333 334 334 334 334 332 331 331 331 331 332 332 331 330 329 327 327 326 327 327 327 326 326
325 326 327 327 328 329 329 328 328 328 328 328 327 328 328 328 328 328 327 325 325 326 327 330 332 331 330 329 329 328 328 327 327 327 329 330 330 330 331 331 332 334 334 335 336 336 336 337 337 337 338 338 338 337 337 337 337 337 337 335 333 330 329 332 333 334 334 334 333 331 330 331 331 332 332 332 331 331 329 327 326 326 326 327 327 327 326
325 326 327 328 328 328 328 329 328 328 328 328 327 327 327 328 329 328 327 325 326 327 328 329 329 328 327 327 328 327 327 327 327 328 329 330 330 329 330 332 333 333 333 334 335 336 336 336 337 337 337 337 337 337 337 337 337 336 336 334 333 330 330 332 334 334 334 333 332 331 331 332 332 332 332 331 331 331 329 328 327 327 327 328 328 327 327
325 326 327 327 327 327 328 328 328 328 328 328 327 326 326 328 330 330 329 328 329 330 330 330 330 329 328 328 327 326 325 326 327 328 330 331 330 329 330 333 334 334 334 334 335 335 336 336 337 337 337 337 337 337 336 336 336 335 334 333 333 332 331 333 334 334 333 333 332 332 333 333 332 332 332 331 331 331 330 329 328 328 328 328 328 328 327
325 326 327 327 327 327 327 327 327 327 328 328 328 328 328 330 331 331 331 331 331 331 332 332 332 331 330 330 329 327 326 327 328 329 331 331 330 329 331 334 334 334 335 335 335 334 335 336 336 337 337 336 336 336 336 334 334 335 335 334 333 333 334 334 334 333 333 333 333 333 332 332 332 332 331 330 330 330 329 329 328 328 328 328 328 328 327
325 326 327 327 326 327 327 328 327 327 327 327 328 328 329 329 330 331 331 331 332 332 332 332 332 332 331 331 330 328 327 327 328 329 331 331 330 329 331 334 334 334 334 335 334 334 336 336 336 337 337 336 336 337 335 334 335 336 336 335 335 335 335 335 334 334 334 333 333 332 332 332 331 331 329 328 328 328 328 328 328 328 328 327 327 327 327
325 325 326 327 326 326 327 328 328 327 326 326 326 327 327 328 329 329 330 331 332 332 332 332 332 332 332 332 331 330 329 330 330 330 332 332 331 330 331 333 334 334 334 334 334 334 335 336 336 336 336 336 336 337 336 335 335 336 336 335 334 335 335 335 334 334 333 333 333 332 332 332 331 330 329 327 327 327 327 327 327 327 327 327 327 327 327
325 325 326 327 327 327 327 328 328 328 328 327 326 326 327 328 328 328 329 330 330 331 331 332 332 333 333 333 333 332 332 333 332 332 332 332 332 331 332 333 333 333 333 333 333 334 334 334 334 335 335 335 335 336 335 335 335 335 335 335 334 334 334 334 334 333 333 333 333 333 333 333 332 332 331 330 329 328 327 327 327 328 328 328 328 327 327
326 325 325 327 328 328 328 329 329 329 329 328 327 327 327 327 328 328 328 328 327 328 330 331 332 332 332 333 333 332 333 333 333 333 333 333 332 333 333 333 333 332 331 331 331 332 332 332 332 331 331 332 333 333 333 333 332 331 330 331 332 332 331 332 332 333 334 333 333 333 333 332 332 332 331 330 330 329 329 329 328 328 328 329 329 329 328
326 324 324 326 328 328 328 329 329 329 330 330 329 328 327 328 328 328 327 326 326 329 330 331 331 331 331 332 332 332 332 332 332 333 333 333 333 333 333 334 334 334 333 331 330 330 331 332 331 330 329 330 332 331 329 328 326 325 325 326 327 329 330 330 332 332 332 332 332 333 333 332 332 332 332 331 331 330 331 330 330 329 329 330 330 330 329
326 325 324 326 327 327 327 329 329 329 330 330 329 328 327 328 328 328 327 328 329 330 331 331 331 331 331 331 331 331 331 332 332 332 332 332 333 333 333 333 333 333 334 333 332 331 330 331 332 332 331 332 333 333 330 327 326 327 328 328 329 330 332 333 333 331 328 327 328 329 330 329 330 331 331 331 331 332 332 331 331 331 331 330 330 330 330
Wind_Speed
7 8 8 7 4 4 6 7 8 8 8 5 4 5 7 8 7 5 5 6 7 8 7 9 9 5 5 7 12 17 18 19 19 20 21 20 20 19 19 19 19 18 18 18 17 16 16 17 18 18 18 17 16 16 15 15 14 13 13 12 11 10 10 8 7 8 9 10 9 9 8 8 8 9 9 10 10 10 11 12 13 15 15 16 16 15 15
8 6 6 5 3 6 8 9 8 8 8 8 5 3 5 7 5 4 5 5 9 8 6 8 6 4 4 7 12 15 18 20 20 21 22 22 21 21 21 21 19 18 18 18 17 17 18 18 19 19 19 18 18 17 17 16 15 14 13 12 11 10 10 9 9 10 10 8 7 6 5 5 6 7 7 8 8 8 9 9 9 10 12 12 12 12 13
7 5 3 5 6 7 9 10 8 6 5 6 3 2 1 2 3 2 5 3 7 6 5 6 2 10 9 9 12 16 19 21 22 22 22 23 23 22 22 21 20 19 18 19 19 19 19 17 17 19 19 18 18 17 17 16 15 13 12 11 10 10 10 10 10 10 9 7 6 5 5 5 5 5 6 6 7 7 8 8 8 8 9 10 10 10 11
6 3 6 9 9 9 8 7 9 10 6 4 2 3 4 3 3 2 2 1 5 4 6 7 1 10 11 10 13 16 19 21 22 23 23 24 24 24 23 22 21 20 20 21 21 20 19 17 17 18 18 18 18 17 17 16 14 13 12 11 10 9 10 10 10 10 8 8 7 7 6 6 6 6 7 8 9 10 11 11 11 11 11 11 11 11 11
6 3 5 6 6 8 6 3 5 6 4 3 3 4 6 6 4 3 2 3 6 6 7 7 4 4 7 11 17 19 20 22 24 23 24 25 25 25 24 22 21 21 22 21 21 20 18 17 16 17 17 16 16 16 15 14 13 13 12 10 9 9 9 9 10 9 9 8 8 7 7 7 8 9 10 12 13 13 14 15 15 15 14 14 13 13 13
5 5 4 5 5 4 4 4 1 2 1 3 4 5 7 7 5 3 4 6 8 9 7 7 7 6 3 7 15 21 21 22 24 24 24 25 25 24 24 22 21 21 21 20 19 18 17 16 15 15 14 12 12 13 14 13 12 12 11 10 9 9 9 10 10 9 9 8 8 8 8 9 10 11 12 13 14 15 16 16 17 17 17 17 16 16 16
3 2 4 3 4 5 6 3 1 3 3 5 5 5 8 10 9 9 8 9 10 10 11 12 13 13 7 4 10 16 18 19 22 23 23 25 25 24 24 23 22 21 20 20 19 18 17 15 15 14 12 11 11 13 14 13 12 11 10 10 10 10 10 10 9 9 8 8 8 9 9 10 11 12 13 14 14 15 15 15 16 17 17 18 18 19 19
2 1 2 3 6 5 2 1 2 3 4 4 4 5 9 11 11 10 10 11 12 12 14 14 11 11 8 3 4 8 13 16 18 20 21 23 24 24 23 22 21 21 20 19 18 17 16 15 15 14 12 11 13 14 13 13 12 11 11 10 9 9 9 9 9 8 8 8 9 10 10 11 12 13 13 14 13 13 13 12 12 13 14 16 17 18 19
2 2 3 2 3 5 2 3 3 3 4 4 1 1 5 9 11 12 10 11 12 13 15 14 5 4 6 5 6 3 7 12 15 17 18 19 21 22 21 20 20 19 19 18 17 16 15 15 14 13 12 12 14 14 13 13 12 11 10 9 8 8 8 8 8 8 8 9 10 10 11 12 13 13 14 13 13 12 11 10 10 11 12 13 14 16 17
2 3 2 1 2 4 2 2 4 6 7 6 3 3 2 6 13 17 13 11 13 13 15 14 7 5 4 3 5 8 3 6 12 15 16 17 19 20 19 20 19 19 19 19 18 17 16 15 14 13 14 14 14 13 13 12 11 10 9 9 8 7 7 7 7 8 8 9 9 10 12 13 13 13 13 12 12 12 11 10 10 10 11 12 13 14 15
1 4 3 3 4 3 3 6 10 12 11 5 4 3 2 6 16 22 16 12 15 15 15 15 11 7 3 1 8 16 12 5 11 14 16 17 17 17 18 18 18 17 18 18 19 19 18 17 16 15 15 15 14 14 13 11 11 10 9 8 7 6 6 6 7 7 8 9 10 11 12 13 13 13 12 12 11 11 11 11 11 10 9 10 11 13 13
2 3 3 3 2 0 4 7 13 15 8 2 5 2 3 7 17 22 17 14 16 18 19 18 12 7 3 3 12 20 13 5 10 13 16 17 17 16 16 16 17 16 17 18 20 20 19 18 17 15 16 16 15 14 13 12 11 9 6 6 5 5 5 6 6 7 8 9 10 11 12 13 13 13 12 11 11 11 11 11 11 11 10 10 11 12 13
1 1 2 2 1 0 4 11 17 13 2 4 3 2 5 9 17 20 18 16 17 18 18 17 11 7 9 11 16 19 11 3 10 13 14 14 16 16 14 14 16 16 17 18 18 17 17 17 16 16 16 16 15 14 14 13 10 7 5 5 5 5 6 6 6 7 8 9 10 11 11 12 13 13 12 12 12 12 11 11 11 11 12 12 13 14 14
2 1 2 2 1 1 8 17 19 10 0 3 1 1 4 10 15 18 20 19 19 18 16 15 14 16 20 23 24 22 15 6 4 11 12 12 14 15 14 14 14 15 17 17 16 16 16 16 16 15 16 16 15 15 15 13 10 7 6 6 6 6 6 6 7 7 8 8 9 10 11 12 12 12 12 12 12 12 11 11 11 11 12 13 15 15 13
2 1 1 1 1 4 15 18 12 7 4 2 1 4 6 8 12 17 21 22 22 20 18 18 20 22 25 26 27 25 21 15 6 4 10 11 12 14 15 15 14 14 16 17 17 17 17 16 16 15 16 16 16 16 15 13 10 9 8 7 7 7 7 7 7 7 8 9 9 10 11 11 11 11 10 10 11 11 11 12 12 11 12 14 15 13 10
1 1 1 1 3 9 17 14 4 3 4 2 3 7 7 8 12 16 19 22 23 22 21 21 22 23 25 26 27 26 24 20 15 7 1 5 9 11 13 14 15 15 16 17 18 18 18 17 17 16 16 16 16 17 15 13 11 10 9 8 8 7 7 7 8 8 8 9 9 9 9 9 8 9 9 10 11 11 11 11 10 10 11 12 10 9 7
1 2 4 5 8 13 16 12 8 9 7 5 7 9 7 9 11 13 16 18 20 22 23 24 24 24 24 25 26 25 23 22 19 14 9 4 4 8 11 13 14 15 17 19 20 20 19 20 19 18 17 16 16 16 15 14 13 12 11 10 9 9 8 8 8 9 9 8 7 7 7 7 7 7 8 9 9 10 11 11 10 8 8 8 7 7 7
3 4 6 7 10 14 14 11 9 8 6 6 6 5 6 10 11 12 14 14 14 18 21 24 26 25 22 22 23 21 21 22 21 17 13 9 5 5 9 12 13 15 16 18 21 22 21 21 21 20 18 16 15 15 15 14 14 12 12 11 11 10 9 8 8 9 8 6 6 5 6 6 6 6 6 6 7 7 8 8 7 5 5 4 4 4 5
3 3 4 6 12 15 10 9 11 8 6 8 7 4 6 9 11 12 12 13 14 15 17 19 23 23 21 22 22 18 18 21 23 20 16 11 8 6 7 10 13 15 17 18 20 22 23 23 22 22 21 18 15 15 16 15 14 13 13 12 11 11 9 8 8 7 6 5 5 6 6 5 4 3 3 4 5 5 4 4 3 2 2 1 1 2 4
2 5 9 13 18 12 4 9 15 12 10 12 13 10 9 9 10 12 13 15 16 16 16 17 19 20 20 21 21 19 16 18 21 22 20 15 10 7 7 10 12 15 17 18 19 21 23 23 23 23 23 21 18 18 18 17 17 15 14 14 13 12 10 8 8 7 6 6 6 6 6 5 4 2 1 2 3 3 4 3 2 2 1 1 2 4 5
4 5 8 13 14 8 8 17 22 18 16 17 16 14 13 12 12 13 13 14 16 18 19 19 18 18 18 17 19 21 19 17 17 20 22 20 15 11 9 11 13 14 16 17 19 20 21 22 23 24 24 23 22 21 20 19 19 18 16 15 16 14 11 9 8 8 8 8 7 7 7 6 4 3 2 1 1 2 3 3 2 2 2 3 5 6 6
3 4 7 10 7 5 14 23 24 21 21 18 13 12 14 13 13 14 13 13 14 15 17 17 15 16 18 17 18 21 21 17 15 16 21 23 20 15 13 12 13 15 16 17 19 20 21 22 23 24 24 25 24 23 22 21 21 20 18 18 18 17 13 10 9 10 10 10 9 8 8 6 5 4 3 1 1 1 2 2 3 3 3 4 6 5 4
6 10 15 15 8 9 17 25 25 22 18 13 9 11 14 14 15 15 14 13 13 13 13 14 14 15 17 18 20 21 20 18 15 15 18 21 21 20 18 16 15 15 17 19 21 22 22 23 24 24 25 26 26 25 24 23 22 21 21 21 21 19 14 10 10 11 12 11 10 9 8 6 5 5 4 3 2 2 2 2 3 3 3 3 2 1 3
11 16 20 18 15 17 20 23 22 16 10 9 10 11 12 15 17 17 15 13 13 13 13 13 13 14 16 19 20 20 20 18 16 16 17 17 18 20 21 19 17 15 15 19 22 23 23 24 25 26 27 27 27 27 26 26 25 23 23 23 22 19 14 11 10 12 13 12 11 10 8 6 6 5 5 4 3 2 1 2 2 3 2 1 4 5 6
15 18 18 17 19 19 16 15 14 9 6 10 13 12 12 14 15 16 16 14 12 12 12 12 10 9 12 15 15 15 17 17 16 16 17 16 16 20 22 22 20 17 15 15 18 21 24 25 26 27 28 29 29 29 28 28 27 25 24 23 22 19 15 12 12 14 15 14 13 11 9 8 7 7 6 5 4 3 2 1 1 2 1 4 6 7 7
14 15 13 13 15 14 10 9 11 11 10 14 16 15 14 15 15 15 16 14 12 12 13 13 11 8 8 10 11 12 14 14 13 14 16 16 17 20 24 24 22 20 18 15 14 16 20 24 26 28 28 30 31 32 31 31 30 27 24 22 20 18 15 12 12 15 16 16 14 13 11 10 9 8 7 6 4 4 3 2 1 1 3 5 7 8 8
13 9 8 9 12 14 13 13 15 17 18 19 19 19 18 17 17 16 15 14 13 12 13 14 12 9 8 9 10 12 14 13 12 14 16 17 18 20 23 24 22 21 20 18 16 14 15 19 23 26 28 30 31 32 31 30 30 28 24 20 18 18 15 12 12 16 17 17 16 14 13 12 11 9 8 7 5 5 5 4 3 3 4 6 7 9 9
14 10 9 11 14 18 20 20 21 22 22 22 21 21 21 20 19 17 15 13 12 12 12 12 11 11 10 10 10 11 13 14 14 16 18 19 19 21 22 22 22 21 21 20 18 15 14 16 18 22 26 29 28 26 25 24 25 26 23 19 17 18 16 14 14 18 19 18 17 15 14 14 13 11 10 8 7 7 6 5 5 5 6 7 8 9 9
16 16 17 19 20 21 23 24 25 25 24 23 22 22 20 20 19 18 16 15 13 11 11 10 10 11 11 12 13 13 13 14 16 18 19 20 20 21 21 21 20 20 20 19 17 14 13 15 16 19 24 26 24 23 23 22 22 24 24 21 20 20 18 17 18 20 21 19 17 16 15 14 13 12 10 9 8 8 7 7 7 7 8 9 9 9 9
21 22 22 23 23 22 23 24 25 25 24 23 22 21 19 18 19 19 17 17 16 15 13 12 11 12 12 13 15 15 14 15 17 18 20 21 21 20 20 19 20 20 19 18 17 14 13 14 16 19 22 22 20 21 22 22 24 26 27 26 24 21 18 19 21 22 22 20 17 16 15 14 12 11 10 9 9 9 8 8 8 8 9 10 10 9 9
24 24 24 24 24 23 23 23 23 23 22 20 20 21 19 18 18 19 19 18 18 17 17 15 14 14 14 14 15 15 15 16 17 18 20 20 20 19 18 18 19 20 19 18 17 15 14 16 18 20 21 20 18 19 20 23 27 29 29 29 27 23 19 21 23 23 22 21 19 17 15 13 11 10 9 8 8 8 8 8 9 9 10 11 10 10 9
23 24 25 25 24 23 24 25 24 24 23 21 20 21 20 19 19 19 20 20 19 19 18 18 17 16 15 15 15 16 17 17 18 19 19 19 18 18 17 17 18 18 18 17 17 16 16 17 18 19 20 19 19 19 20 24 29 31 30 29 28 24 21 23 25 25 23 22 19 17 15 13 11 9 7 7 7 8 9 9 10 10 11 12 11 11 10
20 21 23 24 24 24 27 28 27 26 25 24 22 22 21 20 19 19 19 19 19 20 19 19 18 17 15 15 16 18 19 19 20 20 19 18 17 16 15 16 17 17 18 17 17 16 17 18 18 18 19 19 20 21 22 26 30 31 29 28 27 24 23 24 27 26 24 23 20 17 14 12 9 7 6 5 6 8 9 10 11 12 12 12 12 12 11
18 19 21 22 23 24 25 27 27 27 26 25 24 23 21 20 19 19 18 18 18 19 19 18 16 15 14 15 18 19 20 21 21 20 19 17 15 14 14 15 17 17 17 17 17 16 16 17 17 17 17 18 19 21 24 27 30 31 29 27 27 25 23 24 28 28 25 23 21 18 16 13 10 7 6 6 7 9 10 11 12 13 13 13 14 13 13
17 19 20 20 20 21 22 23 24 24 24 24 23 22 21 19 18 18 18 17 17 18 18 17 16 15 15 17 19 20 20 21 21 20 18 16 14 14 15 16 17 18 19 18 17 17 16 16 16 16 16 16 18 21 23 26 29 31 29 28 27 25 22 24 28 28 25 22 21 21 19 15 11 8 7 8 8 9 11 12 14 15 15 15 15 15 15
18 18 18 18 18 20 21 22 22 22 22 22 22 20 18 17 17 16 16 15 16 16 17 17 17 17 18 19 20 20 20 20 19 18 17 15 14 15 16 17 18 19 20 19 17 17 18 17 15 15 15 15 17 19 22 25 28 30 29 27 26 24 22 24 26 26 23 22 22 22 19 15 12 9 9 9 10 11 11 12 14 16 16 16 17 17 17
19 17 16 15 17 18 20 21 20 19 19 18 18 17 16 15 14 13 13 13 14 15 16 17 17 18 19 19 19 19 19 18 17 16 15 14 14 15 16 17 17 18 20 20 18 17 17 16 14 15 16 16 17 19 21 24 29 30 29 27 26 24 22 23 24 24 23 23 23 22 20 17 14 12 12 11 11 11 12 12 13 15 15 16 17 18 18
20 17 14 14 15 16 18 18 16 15 15 15 15 14 13 13 12 11 12 13 13 13 14 15 16 17 18 18 18 18 17 15 14 13 12 12 13 15 16 16 16 17 19 19 18 17 16 13 12 15 17 17 18 19 21 25 29 30 28 27 26 24 22 21 22 23 23 22 22 22 20 18 16 14 14 13 11 10 11 12 13 14 14 15 16 18 19
21 17 14 14 13 13 14 14 13 12 13 13 12 11 11 11 11 11 11 11 11 11 12 14 15 15 15 15 15 14 13 12 11 11 10 11 13 14 15 16 16 16 17 17 17 17 15 11 11 14 17 17 17 19 23 28 30 30 28 26 26 24 21 19 19 21 22 22 21 21 21 19 17 16 15 14 11 10 10 12 13 14 14 14 15 16 17
22 19 16 14 13 12 11 12 11 10 10 10 10 9 9 9 9 10 10 10 9 9 10 11 12 12 12 11 11 10 9 9 9 9 10 11 12 14 16 16 14 13 13 14 15 15 14 12 12 14 16 17 18 21 26 31 32 30 28 27 25 21 18 16 17 21 23 22 20 20 20 20 18 17 16 14 11 10 11 13 14 15 15 15 15 15 15
24 21 17 14 12 10 10 11 11 9 8 8 8 8 9 9 9 9 9 9 9 9 9 9 9 9 8 7 7 7 6 6 7 8 10 12 13 14 16 16 13 10 10 12 13 13 13 13 13 13 15 19 22 24 26 28 29 28 27 26 22 17 14 14 17 21 23 22 20 19 19 19 19 18 17 15 12 11 12 13 15 16 16 15 15 15 15
25 21 17 13 11 10 8 9 9 8 7 7 7 8 9 10 10 9 8 7 7 8 9 8 7 6 5 4 4 4 3 5 6 8 9 11 12 13 15 15 12 9 9 10 12 12 12 13 14 14 16 20 24 24 25 26 27 27 26 24 19 15 12 13 16 20 22 21 19 18 18 18 18 18 17 16 14 12 12 13 14 16 17 16 16 15 16
24 21 18 15 12 10 8 7 8 8 7 6 6 7 7 7 7 7 7 6 5 6 7 7 6 5 5 4 3 3 4 5 6 7 8 8 8 10 13 14 11 9 8 9 11 10 10 11 13 14 16 20 23 23 24 27 28 26 25 22 17 13 13 15 16 18 19 19 17 16 17 17 17 16 16 16 14 12 12 12 13 15 16 16 15 15 16
21 18 17 16 14 12 10 8 8 8 7 5 4 5 5 5 5 5 5 4 3 4 5 7 7 6 6 5 4 3 5 6 6 8 9 8 7 9 11 10 9 9 10 11 10 9 8 10 11 13 15 19 22 23 25 26 26 24 21 18 14 13 14 17 17 18 18 17 15 15 15 15 14 15 15 15 14 13 12 12 13 15 16 16 16 16 17
18 17 17 17 16 13 10 9 9 9 8 6 5 4 5 5 4 4 3 2 2 3 4 6 6 5 5 5 4 4 5 5 6 8 10 10 9 10 10 9 7 9 11 11 10 8 8 9 10 11 15 18 22 24 25 25 23 21 18 15 14 15 17 18 18 17 16 15 14 14 13 13 13 14 14 13 13 13 12 12 13 14 15 17 18 18 18
18 18 17 16 14 12 11 11 10 8 7 6 4 5 5 5 5 6 5 4 4 4 5 5 6 5 5 4 4 3 4 5 6 8 9 9 8 9 9 9 9 9 8 7 7 6 6 8 9 10 14 18 22 25 24 22 20 19 17 15 15 15 15 16 16 16 15 14 13 12 12 11 11 12 12 12 12 12 12 13 13 14 15 16 17 17 18
20 19 17 15 13 12 12 11 10 8 7 6 4 5 7 7 7 8 6 5 5 6 6 6 5 5 6 6 6 5 5 6 7 7 8 8 7 8 8 8 8 6 4 5 9 9 4 4 8 12 15 17 21 24 26 25 23 23 21 19 17 15 14 14 14 13 13 13 12 11 10 10 9 8 8 8 9 10 11 12 12 12 13 14 15 15 17
20 19 16 13 12 13 14 13 11 10 10 9 8 8 9 9 9 8 5 4 5 6 6 6 6 6 7 8 9 8 8 8 8 8 8 8 7 7 8 9 8 5 5 7 10 12 11 5 5 10 13 15 18 22 23 23 23 24 24 23 21 19 17 16 15 13 11 10 10 10 10 9 8 8 8 7 8 9 10 10 10 11 12 13 14 15 16
17 17 15 12 12 15 17 16 13 12 12 12 10 10 10 10 9 6 4 4 5 5 5 6 8 9 10 10 11 11 11 11 11 10 9 8 7 7 8 8 9 9 9 9 10 10 11 10 8 7 8 10 12 14 15 15 16 17 18 19 19 17 16 15 15 13 12 10 10 10 10 10 10 10 10 10 10 10 11 11 12 12 13 14 16 17 18
17 18 16 12 13 17 18 16 15 14 14 13 12 11 10 9 8 6 6 7 7 6 5 7 9 10 10 11 11 11 11 11 11 11 10 9 8 7 7 7 7 8 8 9 9 8 8 8 8 8 9 10 9 10 10 10 11 11 10 9 10 10 9 9 10 11 11 12 12 11 11 11 12 13 13 13 13 13 13 13 15 16 16 17 18 19 19
17 19 17 13 14 16 16 14 14 14 14 13 13 12 11 9 6 6 8 8 6 5 5 8 11 12 12 11 11 11 11 10 10 10 10 10 9 9 8 8 8 6 6 6 7 7 7 6 5 6 8 9 8 8 8 9 8 8 8 9 10 10 10 10 11 12 12 12 12 12 12 12 12 13 14 15 16 16 16 16 18 18 19 20 21 20 20
15 18 18 14 14 16 15 14 12 12 13 13 13 12 10 8 5 6 8 8 6 5 8 11 13 14 14 14 13 12 11 10 9 9 9 10 10 10 10 10 10 9 7 6 5 5 6 5 3 3 4 5 5 5 7 9 9 9 10 11 12 14 14 15 15 16 16 15 14 14 14 14 14 14 15 16 17 18 18 19 18 18 19 21 22 22 21
Wind_Direction
245 229 241 247 246 252 266 285 276 270 279 261 199 190 189 154 153 227 232 173 211 255 252 236 232 202 193 201 187 182 181 178 180 181 183 188 191 193 195 196 200 200 197 195 190 186 186 186 186 186 183 183 186 191 195 199 205 211 214 217 223 228 230 229 220 210 207 210 216 223 227 228 230 234 239 246 251 253 255 256 258 258 256 254 255 258 259
280 256 240 245 295 316 311 308 285 264 261 251 244 234 189 175 193 206 148 177 238 260 263 251 230 162 172 187 180 180 180 179 181 181 184 187 190 192 194 196 200 201 199 195 189 185 182 182 185 185 184 184 187 192 196 200 207 212 214 217 219 221 223 223 220 219 219 218 220 223 222 218 219 225 234 241 246 251 253 257 261 262 261 258 257 258 258
300 296 305 311 336 335 316 314 316 316 293 262 269 1 321 221 247 195 135 192 263 269 293 296 181 143 148 158 169 179 184 184 184 183 184 186 188 192 194 196 198 199 199 194 188 186 183 184 188 188 187 187 188 193 199 204 210 213 214 218 220 218 218 219 221 225 225 222 223 226 223 218 215 219 229 238 244 248 250 252 256 258 259 258 254 252 253
289 314 1 339 336 338 326 330 342 342 328 281 288 41 32 342 305 279 138 198 275 283 331 336 97 142 148 162 172 179 186 189 187 185 186 188 191 192 194 196 197 196 196 194 191 189 188 188 190 190 190 192 194 198 203 207 210 211 214 219 220 218 216 216 219 223 222 222 229 237 239 235 234 241 256 266 270 271 269 266 266 264 262 260 259 258 257
275 304 356 339 347 351 330 321 328 310 292 305 343 30 26 8 344 304 259 247 274 296 328 328 297 176 167 179 183 184 188 190 190 192 194 195 196 196 196 197 196 195 196 197 196 195 194 192 191 190 192 196 199 203 205 208 208 210 214 216 215 218 219 219 221 223 225 228 232 240 242 243 250 261 271 278 281 282 281 278 277 274 270 266 264 264 264
266 300 349 351 356 339 264 237 255 280 293 33 48 43 17 4 357 315 275 274 294 305 305 290 265 238 209 200 202 201 198 194 192 195 199 201 202 201 200 200 198 196 197 199 200 201 200 197 193 191 192 196 200 202 203 205 206 209 214 215 215 219 220 221 224 225 227 231 234 242 249 255 264 270 273 276 277 277 276 273 270 268 266 263 261 261 262
247 316 30 354 279 240 228 230 68 71 78 81 86 61 24 10 3 349 328 314 310 299 287 282 267 253 251 242 213 209 209 205 200 198 200 203 204 204 204 203 201 200 200 201 203 203 202 202 199 195 195 195 195 196 197 200 203 206 210 215 218 220 220 222 225 226 229 236 245 254 260 264 268 272 274 276 277 275 273 269 263 259 255 254 254 255 256
219 165 130 205 238 251 274 355 19 49 53 48 48 32 19 14 6 354 338 326 319 309 306 308 289 255 235 192 169 198 211 214 211 209 208 206 205 208 210 210 208 206 205 205 205 205 205 205 203 201 200 197 194 195 195 198 201 202 207 215 221 225 228 229 228 230 236 244 252 260 266 272 276 280 282 283 284 283 281 276 265 255 248 247 248 249 252
178 181 214 223 288 303 339 44 35 26 355 334 22 63 3 7 7 358 346 337 334 330 334 347 360 189 182 133 93 113 205 218 221 220 219 214 210 210 213 217 217 216 214 211 209 208 209 208 207 208 208 203 197 197 197 198 202 206 210 219 226 230 232 231 229 231 237 243 252 262 272 280 285 287 290 293 295 295 293 287 273 257 250 249 248 249 251
132 142 215 302 246 238 245 350 347 351 322 288 194 140 329 348 0 358 351 347 351 348 347 2 44 125 143 113 48 29 11 235 231 227 223 219 215 212 211 214 217 218 217 215 214 212 212 213 214 215 214 209 203 201 202 204 207 212 218 225 231 231 229 227 228 233 241 250 261 271 279 285 288 289 294 298 300 300 298 294 285 270 261 259 257 257 257
154 151 196 232 207 202 353 331 321 331 324 281 165 111 335 338 354 355 351 349 356 356 360 17 47 69 65 296 330 351 352 265 233 232 228 222 218 216 213 213 215 215 215 216 216 216 216 217 218 217 215 212 207 207 207 208 211 215 220 226 231 230 226 226 229 236 247 259 269 278 284 288 290 292 296 298 300 301 299 297 297 292 280 270 267 266 265
240 163 210 243 210 58 359 327 318 323 321 166 132 133 284 331 351 354 350 342 348 358 12 28 44 58 54 307 327 344 344 249 217 227 232 228 224 222 219 217 218 217 218 219 219 219 220 220 220 219 216 214 215 215 213 212 214 216 220 227 232 232 229 229 234 244 255 266 275 282 285 287 289 292 296 297 297 297 295 295 297 296 289 279 273 271 269
297 193 218 263 276 343 327 324 322 319 298 123 104 203 261 324 349 360 358 347 346 359 19 33 38 36 27 10 4 9 4 244 204 210 225 230 229 230 229 226 222 219 220 223 225 226 226 224 223 221 219 218 220 221 221 220 220 220 224 234 240 240 240 241 246 254 262 270 276 280 282 286 291 295 297 298 297 294 291 288 286 285 283 279 275 273 274
342 177 198 272 252 237 329 331 328 330 58 152 168 252 302 326 349 6 8 1 354 355 11 26 25 22 23 22 26 33 31 23 191 200 209 217 226 231 232 232 230 226 223 223 225 225 225 225 225 224 223 223 223 224 225 225 225 227 233 243 250 250 250 251 253 257 262 268 274 279 285 291 296 297 298 297 295 292 286 281 279 278 280 280 282 284 285
341 9 17 2 207 305 336 341 343 3 30 183 202 23 3 340 351 5 9 10 6 355 354 7 16 20 20 20 25 33 37 38 44 191 203 211 225 232 234 235 232 228 224 222 222 221 219 221 223 224 226 226 226 227 226 224 225 230 237 247 253 252 252 252 254 257 263 270 277 284 292 298 299 298 298 296 293 290 285 279 277 276 279 284 291 299 299
11 4 347 114 214 298 329 340 334 334 349 307 338 11 12 352 356 7 12 15 14 3 351 355 9 17 17 16 18 25 33 39 39 38 149 222 234 238 241 242 237 230 225 223 223 222 219 218 219 222 225 226 227 228 227 224 225 230 238 245 246 244 245 245 248 253 260 269 280 290 298 300 299 298 298 296 295 295 295 294 290 286 289 297 307 320 323
224 216 256 277 287 306 328 339 316 302 308 319 340 351 343 334 350 8 12 11 15 12 360 354 2 10 13 15 17 19 24 31 34 34 31 6 274 251 245 243 240 236 231 228 227 226 223 221 219 220 223 226 227 226 224 223 226 231 238 243 241 238 237 236 237 244 255 269 283 294 295 295 298 299 301 302 302 300 299 300 298 296 303 314 329 344 347
277 272 260 270 301 319 337 357 349 324 316 328 340 332 300 301 321 345 355 356 5 13 7 357 357 2 6 10 12 12 13 17 21 25 30 30 7 300 263 247 241 237 233 232 232 231 230 227 223 222 224 226 227 225 221 221 225 231 237 241 240 237 235 233 234 242 256 271 279 282 285 289 294 298 304 316 321 315 307 301 298 297 304 319 344 2 349
336 316 252 274 312 317 328 6 10 359 342 337 335 313 293 299 304 311 321 327 333 348 356 351 351 356 1 3 2 0 3 7 6 7 13 22 18 343 293 264 249 239 234 231 229 230 232 231 228 225 225 225 224 222 219 219 221 228 234 238 238 237 235 234 237 242 251 255 253 260 271 275 274 281 312 339 344 344 345 340 328 318 317 343 353 332 321
294 264 268 302 321 317 311 359 357 352 347 340 333 326 322 321 312 302 300 303 307 315 324 327 333 341 349 354 353 348 356 6 360 350 350 357 4 355 317 281 259 246 239 235 230 228 229 229 228 226 224 223 221 219 218 218 219 224 231 233 233 231 230 231 233 233 231 227 232 244 248 241 235 245 310 345 353 7 20 31 34 21 11 329 297 293 295
296 275 291 324 340 339 329 337 341 342 341 337 332 331 328 324 324 322 311 298 290 289 295 302 311 320 327 337 342 337 342 357 355 341 336 337 343 348 331 297 269 254 248 245 241 237 233 231 229 228 226 224 222 219 219 221 221 223 227 229 228 225 223 224 223 218 212 212 220 229 227 216 213 217 232 292 346 16 19 24 22 357 325 299 291 289 287
290 262 301 327 339 302 307 321 328 332 334 332 332 339 340 334 330 327 318 305 293 283 282 286 295 308 316 323 325 322 324 334 338 331 325 324 325 330 329 309 282 263 254 252 251 249 246 242 237 233 231 230 227 223 221 224 226 227 228 228 226 222 221 223 217 207 202 202 210 217 214 207 206 205 197 179 96 52 22 10 356 333 311 298 290 284 280
255 273 296 308 298 274 295 311 317 322 330 334 335 342 347 348 343 333 318 308 306 300 291 287 285 290 300 309 312 311 313 318 317 310 308 313 318 318 315 309 296 275 259 252 251 251 252 251 248 243 239 236 233 229 225 225 227 230 232 231 227 222 220 220 213 202 196 195 202 207 205 202 201 194 170 139 115 84 29 1 347 331 316 303 291 186 141
267 285 298 302 294 287 296 307 311 315 327 333 330 332 335 338 343 341 329 312 302 301 304 305 299 285 281 291 300 302 304 307 304 295 292 301 311 313 307 302 300 293 275 259 253 252 253 253 252 250 247 244 240 236 231 229 228 231 234 234 230 225 222 218 209 200 193 192 195 195 192 190 188 178 164 150 131 95 35 350 343 341 344 110 119 122 127
280 290 296 295 290 289 297 305 304 301 311 319 318 319 319 320 326 332 332 321 300 289 294 305 312 301 285 285 288 287 287 291 292 290 290 291 297 306 307 304 301 300 294 277 262 255 252 252 252 252 250 249 246 241 236 232 230 231 235 235 232 230 228 220 208 201 195 192 190 186 180 177 176 171 166 162 146 124 108 71 4 1 79 126 124 125 130
297 296 295 291 287 288 295 302 298 293 297 306 309 309 311 312 311 315 322 320 300 281 280 289 298 301 292 286 277 268 271 277 279 284 288 286 287 297 304 304 301 301 300 296 283 266 256 252 252 253 253 253 251 246 241 236 232 232 234 234 230 232 236 231 214 204 198 192 186 182 176 171 170 168 167 165 154 144 141 130 100 109 144 141 135 133 136
314 304 292 293 293 291 295 301 302 299 298 301 305 305 305 307 304 302 307 310 301 284 276 279 281 273 264 267 267 266 270 272 271 274 278 281 286 294 299 301 302 302 301 301 299 290 273 259 252 252 255 256 251 243 236 232 230 231 232 231 229 231 238 236 217 205 200 193 187 182 175 169 167 167 167 165 163 162 161 150 137 150 161 156 147 142 142
312 303 297 300 298 296 299 301 299 298 297 297 299 301 300 300 300 296 293 295 297 292 283 276 265 252 251 260 269 274 275 274 274 276 279 282 287 291 294 299 302 302 301 302 301 298 288 273 260 253 254 254 249 242 237 233 231 231 231 231 231 231 230 223 211 205 201 195 188 182 176 171 169 170 171 173 174 174 172 162 153 159 169 167 159 154 151
309 304 302 299 296 297 299 298 294 294 294 294 294 295 292 290 290 289 283 277 277 281 284 278 261 250 254 264 273 279 282 281 281 281 282 283 284 286 291 298 300 299 299 300 298 292 284 274 263 253 251 251 253 255 254 248 244 241 238 235 237 236 227 215 208 205 201 194 187 182 178 174 173 173 176 182 185 182 176 170 164 167 177 178 170 164 161
312 308 304 301 299 299 297 294 292 291 291 290 290 290 286 282 279 277 273 268 262 260 263 266 263 261 265 272 277 281 282 282 281 278 277 278 280 284 289 293 294 294 295 295 293 288 277 264 256 253 254 255 257 257 250 241 239 242 239 237 240 241 232 218 209 203 198 192 184 180 178 176 175 178 183 190 195 192 186 180 175 175 182 184 179 173 168
310 307 305 303 303 302 299 297 295 292 290 290 288 285 282 279 275 271 267 263 259 256 255 255 255 259 266 273 278 282 285 286 285 282 279 279 279 282 286 288 290 292 294 295 295 290 276 261 253 253 258 260 257 253 243 231 227 228 228 228 232 237 234 221 209 202 197 192 185 179 178 176 176 182 191 199 207 209 205 195 186 183 188 191 187 181 177
309 306 304 303 305 306 304 303 300 295 293 292 289 285 283 281 278 273 269 264 261 259 258 255 254 257 264 269 274 280 287 290 290 289 286 283 281 281 283 286 289 291 293 295 296 289 276 266 259 255 256 254 251 248 243 232 224 222 220 220 224 230 230 219 207 201 200 196 188 182 178 174 173 179 189 203 216 222 220 211 198 191 194 196 194 190 187
306 302 300 303 305 305 303 302 300 297 294 294 291 288 285 281 277 274 272 269 264 261 260 259 256 256 261 267 272 280 288 292 292 292 289 286 282 281 282 284 286 289 291 292 293 289 280 273 266 260 257 254 252 250 246 236 227 221 218 216 217 224 228 218 206 202 203 200 194 189 183 177 175 177 184 203 221 227 227 221 210 201 200 201 201 199 198
301 295 295 298 301 300 297 297 296 294 293 293 292 290 286 280 276 274 272 269 263 258 257 256 254 254 262 271 276 282 287 290 290 290 290 286 284 283 285 286 287 289 290 290 290 289 284 276 268 262 257 255 254 251 247 240 229 221 216 213 212 217 224 218 207 205 207 204 198 196 194 190 186 187 196 213 224 228 229 226 218 210 204 203 206 208 208
309 302 299 298 299 298 296 294 291 290 290 291 291 290 287 281 277 275 272 265 259 254 252 251 252 257 267 274 277 281 284 284 286 289 289 287 287 288 289 290 290 290 289 288 287 288 286 278 267 259 256 255 254 250 246 239 229 219 215 213 210 211 220 219 210 207 208 207 203 202 201 197 193 199 212 219 223 225 227 226 222 215 208 205 210 215 216
319 312 307 306 306 304 300 297 293 289 289 289 288 288 285 279 276 274 270 261 255 250 249 251 256 263 270 274 276 279 279 279 283 287 287 286 289 292 292 293 295 294 292 291 289 286 284 279 271 263 259 257 254 249 243 236 225 216 213 211 208 208 215 219 213 209 211 213 211 207 204 199 198 209 221 223 221 221 223 224 222 218 213 209 211 218 222
324 317 314 316 316 310 304 300 296 290 288 287 285 284 281 276 272 268 261 254 248 247 250 256 262 267 271 273 274 275 276 279 283 284 282 283 290 294 294 296 298 297 295 293 289 282 277 273 269 265 263 260 255 248 239 229 221 214 210 209 207 208 213 216 214 213 217 219 215 211 207 203 204 212 219 220 218 218 220 223 222 219 215 213 214 219 225
332 329 323 321 321 314 306 301 296 290 285 283 282 283 280 275 268 258 252 251 251 253 258 263 266 268 271 273 275 277 279 280 281 279 279 285 291 294 295 295 296 296 295 292 287 280 274 266 257 255 257 257 255 248 236 225 218 213 208 205 205 208 213 217 217 219 221 221 217 212 209 208 211 214 215 214 214 215 220 224 223 219 216 215 216 221 226
340 340 333 322 319 315 305 300 298 293 286 283 284 284 281 275 268 259 256 259 262 266 270 273 273 274 276 279 283 284 281 277 276 280 285 290 293 293 292 293 294 295 293 288 283 279 271 256 244 246 249 251 253 247 234 224 219 214 207 202 203 206 211 217 221 222 221 220 218 215 213 214 216 216 212 210 213 220 226 228 225 219 214 213 216 222 227
343 345 341 330 322 317 307 301 302 300 290 286 287 285 279 276 272 267 270 277 280 282 286 286 283 282 282 282 283 283 277 274 280 285 287 289 292 292 291 292 295 292 283 276 276 275 265 245 234 237 239 239 242 238 230 224 219 213 206 202 202 204 209 216 221 220 218 217 219 218 217 218 219 216 212 212 217 226 232 233 228 220 214 212 215 220 225
345 346 345 337 329 324 313 303 303 305 298 293 296 294 287 282 277 273 276 283 288 294 302 301 293 288 287 284 282 280 275 277 282 282 282 288 293 294 296 300 301 289 271 268 271 271 257 237 229 232 232 229 228 230 226 220 213 209 206 204 200 198 204 213 216 215 214 218 223 224 222 221 221 217 214 217 223 230 236 238 232 224 218 216 218 222 227
347 348 348 340 332 331 323 305 300 306 307 305 308 303 290 281 277 273 272 276 286 297 307 309 304 296 291 290 291 292 286 283 284 284 288 296 300 302 307 310 306 288 272 272 273 268 252 235 231 235 232 226 225 225 219 207 200 203 209 207 197 189 196 206 207 207 212 219 226 225 222 221 221 220 220 223 228 234 241 241 234 227 222 222 224 228 234
350 352 351 344 341 347 347 328 317 321 321 313 311 307 293 282 280 277 270 268 276 290 302 309 308 300 297 301 306 301 286 284 290 298 307 314 318 318 318 317 311 301 295 291 286 278 262 245 239 236 231 226 223 217 205 194 192 200 209 206 191 180 189 198 200 204 212 218 219 215 214 216 220 224 226 228 232 238 244 243 236 229 226 229 234 239 241
352 354 350 347 351 358 357 347 343 345 342 332 320 313 305 299 295 287 275 270 279 296 313 320 314 300 295 299 295 284 282 289 302 318 328 336 345 341 334 328 322 319 318 312 302 291 274 256 243 236 232 227 218 207 198 193 191 196 201 199 185 177 186 194 198 204 210 211 207 205 208 214 220 225 229 232 236 241 245 244 240 236 235 239 245 248 248
352 350 348 351 358 4 359 353 354 358 358 356 347 327 315 316 319 316 314 323 343 354 352 342 329 315 306 301 293 291 300 310 320 330 335 342 351 353 349 343 333 325 322 317 311 298 279 263 251 241 234 222 209 203 202 200 193 187 186 185 180 178 182 186 190 196 201 202 202 203 206 212 220 225 230 234 238 241 244 245 245 244 245 247 251 254 253
350 350 352 357 4 9 5 0 360 3 5 2 346 323 319 327 341 348 352 7 25 28 14 354 345 343 345 341 334 330 340 346 344 341 341 344 350 358 0 356 347 341 336 335 335 320 281 258 244 231 223 214 204 199 197 192 185 185 187 187 185 183 182 181 185 192 197 199 201 203 205 211 220 226 231 235 238 240 241 242 243 246 250 253 256 259 258
349 352 357 1 5 9 10 7 5 8 13 14 4 354 351 350 351 355 2 22 40 36 19 2 358 6 12 15 20 26 22 11 2 359 359 359 1 9 13 6 358 0 16 25 25 28 19 244 222 211 205 201 194 188 184 182 185 192 198 196 192 190 187 184 187 195 201 203 204 205 208 214 222 225 229 233 234 231 231 233 235 241 248 253 258 262 262
353 353 356 360 4 8 11 11 11 15 18 17 15 12 8 1 354 353 358 21 42 39 26 15 21 35 39 37 38 40 38 30 25 24 24 21 20 25 25 17 14 33 58 46 39 48 62 87 175 195 192 183 177 179 187 194 198 201 204 205 205 205 203 199 196 197 199 205 210 212 215 222 229 231 231 233 230 226 227 232 238 244 252 258 262 265 267
357 358 357 1 11 14 13 12 12 15 16 14 11 10 11 12 12 14 25 39 43 40 39 43 49 52 51 47 44 42 40 36 34 33 34 35 34 35 34 31 36 50 57 47 42 56 74 86 103 127 141 148 160 176 191 200 201 202 208 214 215 214 213 212 209 207 208 213 219 223 226 233 239 241 242 241 238 236 238 245 253 259 264 268 270 271 271
2 3 358 2 16 19 15 11 11 11 11 12 11 10 14 21 28 38 48 46 31 14 24 52 60 57 52 49 47 43 41 39 36 33 33 35 36 36 38 41 44 51 52 47 47 65 90 106 119 126 128 131 145 166 177 178 175 176 182 188 190 194 202 210 214 217 219 221 222 226 231 238 243 246 245 244 242 241 243 249 256 261 266 269 271 273 273
2 1 354 357 15 20 15 10 10 10 8 10 12 10 9 12 22 35 44 46 33 6 18 45 53 51 48 49 48 44 43 42 37 30 29 32 34 34 35 37 39 41 46 48 53 72 95 110 129 145 143 137 140 158 175 178 171 163 161 166 174 185 197 206 211 216 223 227 228 229 233 240 246 249 250 248 248 248 249 251 255 259 262 265 268 271 271
354 357 355 357 9 15 12 7 8 9 9 9 11 8 5 5 11 24 34 41 41 29 27 35 41 45 45 45 43 43 44 44 40 35 35 36 36 35 35 37 38 39 41 41 45 68 94 104 114 139 144 141 149 170 181 181 178 178 183 191 196 198 201 206 212 219 226 233 237 240 243 248 254 258 260 260 260 259 257 256 257 260 264 266 267 269 268